Wind_Speed
18 18 17 17 19 20 23 26 28 30 32 35 37 40 44 47 51 54 58 62 65 68 70 68 66 65 66 67 68 69 71 73 73 71 68 66 64 63 62 62 62 63 64 65
21 21 20 19 21 22 24 27 29 31 33 36 38 41 44 47 51 54 58 61 65 68 71 70 67 66 66 67 67 69 70 72 72 70 68 66 64 62 61 61 61 62 63 63
24 24 25 22 23 24 25 28 31 32 35 37 39 41 45 47 51 55 58 61 65 68 71 71 69 67 66 67 67 68 70 71 71 70 68 65 63 61 61 61 60 60 61 62
28 27 27 25 26 27 28 29 32 33 36 39 41 42 45 48 51 55 58 61 64 68 70 72 71 68 67 67 67 67 69 70 71 70 67 65 63 61 60 60 60 59 59 60
31 31 30 28 29 31 31 30 32 35 37 39 42 44 45 48 51 54 57 61 64 67 70 72 72 69 67 67 66 67 68 69 70 69 67 64 62 60 59 58 59 58 58 59
34 34 33 30 32 34 35 33 34 37 39 41 44 47 48 49 51 54 57 60 63 66 69 71 72 70 67 66 66 66 67 68 69 68 66 63 61 60 58 57 58 58 58 57
37 37 35 33 35 37 37 38 38 39 41 42 45 48 49 50 52 54 57 60 62 65 68 70 72 71 68 66 65 65 66 67 68 68 65 63 61 59 57 56 56 56 56 56
40 39 36 35 37 39 40 40 41 42 43 44 45 47 49 50 52 54 57 59 61 64 66 69 71 71 68 66 65 64 64 66 67 67 66 63 60 58 57 55 54 54 53 53
43 40 37 37 40 42 44 43 43 44 45 45 46 48 49 50 52 53 56 58 60 62 65 67 69 71 69 66 65 63 63 64 66 67 66 63 60 58 56 54 52 52 51 51
45 40 36 38 41 44 46 46 46 47 47 47 47 48 50 50 51 53 55 58 59 61 63 66 68 69 69 67 64 63 62 63 64 66 66 64 60 57 54 53 51 50 50 50
45 38 35 37 40 43 45 47 47 48 48 48 49 49 50 50 51 52 55 57 58 59 61 64 66 68 68 67 64 62 61 61 63 64 65 64 61 57 54 52 51 50 49 49
42 36 37 38 37 39 43 46 47 48 48 48 49 49 50 51 51 52 55 57 58 58 59 61 64 66 67 67 64 61 60 60 61 62 63 63 61 58 55 52 51 50 49 48
43 41 41 39 38 39 44 46 47 49 49 49 49 50 51 51 52 53 55 57 57 57 58 59 61 63 66 66 63 60 59 58 59 60 62 61 59 56 54 52 50 49 47 47
50 49 49 46 44 43 45 47 49 50 50 50 50 51 52 53 53 55 56 57 56 56 56 57 59 61 64 65 63 59 57 57 57 58 60 60 59 56 52 50 48 47 46 45
59 59 59 56 52 49 49 51 52 52 52 51 52 53 55 55 56 56 57 57 56 55 55 56 57 59 62 64 62 59 56 55 55 56 58 59 59 57 53 49 47 45 44 44
68 68 67 65 61 57 55 55 55 55 54 55 55 56 57 58 58 58 58 57 56 54 54 54 55 57 59 62 61 58 55 53 53 54 56 57 58 57 54 50 46 44 42 41
74 73 72 71 68 64 61 59 59 58 58 58 57 59 60 60 60 60 60 58 55 54 52 52 53 54 57 60 60 56 53 52 51 52 53 55 56 56 54 50 46 43 40 39
74 74 74 74 72 68 65 63 62 61 60 60 60 61 61 61 61 61 60 57 54 53 51 50 50 52 55 58 58 55 52 50 50 50 51 53 55 55 54 50 46 42 40 39
68 70 70 70 70 69 68 66 64 63 62 62 61 61 62 62 61 61 60 56 53 51 49 48 48 50 52 55 56 53 50 48 48 48 49 51 53 54 53 50 46 42 39 38
64 65 67 67 67 66 66 66 66 65 63 62 61 61 61 61 61 60 59 55 52 51 48 46 46 47 50 53 53 51 48 46 46 46 47 49 51 52 52 50 47 42 39 37
61 62 64 65 66 66 65 65 64 62 61 60 59 59 59 59 59 59 57 55 53 50 46 44 44 45 47 50 51 49 46 44 44 44 45 46 49 50 51 50 47 43 39 36
59 61 62 63 64 64 64 63 63 62 60 58 57 57 57 57 58 58 56 54 52 48 43 42 41 43 45 47 48 46 44 42 42 42 42 44 46 48 49 49 47 43 39 36
61 62 62 63 63 63 63 62 61 60 58 56 55 55 55 55 55 55 54 52 49 45 41 40 39 40 42 44 45 44 42 40 40 40 40 42 44 46 48 48 46 43 39 36
62 62 63 63 63 62 61 60 59 57 55 54 54 53 53 53 53 53 52 50 47 43 39 38 37 38 40 41 42 41 39 38 38 38 38 39 41 44 46 46 46 43 39 35
65 65 65 64 63 62 60 59 57 55 53 52 52 52 52 52 51 51 50 47 44 40 38 36 36 36 38 39 39 38 37 36 36 36 36 37 39 41 44 45 45 42 39 35
68 67 66 65 63 61 59 57 55 53 52 51 51 52 51 51 51 50 48 45 41 38 36 35 34 34 35 36 37 36 35 34 34 34 35 35 37 39 41 43 44 42 38 34
70 69 67 66 63 62 59 56 54 52 51 52 53 53 53 52 50 48 45 42 38 36 35 34 33 32 33 34 35 34 33 32 32 33 33 33 34 36 39 41 42 41 38 34
Wind_Direction
270 277 286 297 306 316 323 328 333 336 339 342 345 346 348 349 349 349 350 351 352 352 352 350 348 347 347 347 348 348 349 350 350 350 351 352 353 355 356 358 359 0 2 3
271 277 282 291 300 308 315 321 326 331 334 338 342 344 346 347 348 348 349 350 351 351 352 350 348 347 347 348 348 349 350 351 351 352 352 353 354 355 357 359 0 1 3 4
271 276 281 289 295 300 308 315 320 326 330 334 339 341 343 345 347 347 348 348 350 350 351 351 349 348 347 348 349 349 350 351 352 353 353 354 355 356 358 360 1 2 3 5
273 275 279 286 290 296 302 310 315 320 325 330 334 338 340 343 345 346 346 347 348 349 350 351 350 348 348 348 349 350 351 352 353 353 354 354 355 356 358 360 2 3 4 5
274 276 280 283 288 293 298 305 310 316 320 325 329 333 337 340 343 344 345 345 347 348 349 350 350 349 348 348 349 350 351 352 353 354 354 355 355 356 358 360 2 4 5 6
273 276 281 285 287 291 295 301 305 311 316 321 325 328 334 337 340 342 343 344 345 346 347 349 350 349 348 348 349 350 351 352 353 354 355 355 356 357 358 360 2 4 6 7
270 275 281 286 289 291 294 299 304 308 313 317 321 324 329 333 337 339 341 342 343 345 346 347 349 349 348 348 349 350 351 352 353 354 355 356 356 357 359 360 2 3 5 6
267 272 279 283 285 288 291 295 300 304 308 312 316 320 324 329 333 336 338 340 341 343 344 346 348 348 348 347 348 349 350 352 353 354 355 356 356 357 359 1 2 3 4 6
267 272 277 280 283 286 289 292 296 300 304 308 312 315 320 325 329 332 335 338 339 341 343 344 346 348 348 347 347 348 350 351 352 354 355 356 357 358 359 1 2 3 4 6
269 272 276 278 280 283 286 289 292 296 300 303 307 311 316 320 325 328 332 335 337 339 341 342 344 346 347 347 347 347 349 350 351 353 354 355 357 358 359 0 2 3 4 6
271 275 275 273 277 281 284 286 289 292 296 299 303 308 312 316 320 325 328 332 334 336 338 341 342 345 346 346 346 347 348 349 351 352 353 354 356 357 358 360 2 3 5 6
274 276 274 272 274 276 279 282 286 289 292 296 300 304 308 312 316 320 324 329 331 333 336 339 340 343 345 346 345 346 347 349 350 351 353 354 355 356 357 359 1 3 4 5
272 273 272 271 271 272 274 278 282 284 288 292 296 300 304 308 312 316 320 325 328 331 334 336 338 341 344 345 345 345 346 348 349 351 352 353 355 356 356 357 360 2 4 5
268 269 268 266 265 266 270 274 276 279 283 288 292 295 299 303 307 312 317 321 325 327 331 334 336 339 342 344 344 344 345 346 348 350 351 353 354 355 356 357 358 360 2 4
269 269 269 267 265 265 267 270 273 276 280 283 287 291 295 299 304 308 313 317 321 324 328 331 334 336 339 342 342 342 343 345 347 348 350 351 353 354 356 357 358 359 1 3
271 271 271 271 270 268 267 269 272 274 277 280 283 287 290 295 300 304 309 313 317 320 324 327 331 334 337 340 341 341 342 343 345 347 348 350 352 354 355 356 357 359 0 2
272 272 273 273 272 271 270 270 271 273 274 277 280 283 287 291 296 300 304 309 312 316 320 324 327 331 334 337 339 339 340 341 343 345 347 348 351 352 354 355 356 358 359 1
273 273 274 274 274 274 273 272 272 272 272 274 276 280 283 287 291 295 299 304 308 312 316 320 324 328 331 335 337 338 338 340 342 343 345 347 349 351 353 354 355 357 358 360
273 273 273 274 274 274 273 272 271 271 270 271 273 276 279 283 286 290 294 299 304 307 312 316 320 325 328 332 335 336 336 338 340 342 343 345 347 350 352 353 354 356 357 359
277 277 277 276 276 275 274 273 271 271 270 270 271 273 276 279 282 285 290 295 299 303 308 312 316 321 325 329 333 333 334 336 338 340 342 344 346 348 350 352 353 354 356 357
281 281 281 279 278 277 276 274 273 271 270 269 269 270 272 275 278 281 285 289 293 298 303 307 312 318 322 327 330 331 332 333 336 338 340 342 344 346 349 351 352 353 354 356
284 284 284 282 280 278 276 275 272 271 270 268 266 267 269 271 274 277 280 284 288 293 298 303 308 314 319 324 327 329 329 331 333 336 338 340 342 345 347 349 351 352 353 354
284 285 285 284 283 280 276 274 272 270 267 265 264 263 265 267 270 273 276 279 283 288 293 298 304 310 316 321 325 326 327 328 331 333 336 338 340 343 346 348 350 351 352 353
285 284 284 283 281 280 276 273 270 267 264 261 259 258 260 263 266 268 271 274 279 284 288 293 299 306 312 318 322 323 324 326 328 330 333 336 339 341 344 347 349 350 351 352
283 283 282 281 280 277 275 271 267 264 260 256 253 252 254 257 260 263 266 270 274 279 283 288 295 302 309 315 319 320 321 323 326 328 331 333 336 339 342 345 347 349 350 351
282 280 279 278 276 273 270 266 262 258 254 250 248 247 248 251 254 258 262 265 270 274 278 283 290 298 306 312 316 316 317 320 323 325 328 331 334 337 340 343 346 348 349 350
280 278 276 274 271 267 264 260 255 251 250 246 243 243 245 247 249 253 257 261 265 269 273 279 286 294 302 308 312 313 314 316 320 323 325 328 331 335 338 342 344 347 348 349
Height
5862 5860 5858 5856 5853 5849 5845 5840 5836 5832 5825 5819 5812 5803 5795 5786 5776 5765 5754 5742 5729 5716 5702 5687 5673 5659 5644 5629 5613 5597 5581 5564 5547 5531 5514 5498 5482 5467 5451 5435 5420 5404 5388 5372
5857 5854 5852 5851 5847 5844 5840 5835 5831 5826 5821 5814 5807 5799 5790 5782 5772 5761 5750 5738 5725 5712 5698 5683 5669 5654 5640 5625 5609 5594 5578 5562 5545 5528 5512 5496 5481 5466 5451 5436 5420 5405 5389 5374
5851 5848 5846 5845 5843 5839 5835 5831 5826 5821 5816 5809 5802 5794 5786 5777 5767 5757 5746 5734 5721 5708 5694 5680 5665 5650 5636 5621 5606 5591 5575 5559 5543 5526 5511 5495 5481 5466 5452 5437 5422 5407 5391 5377
5843 5842 5840 5842 5836 5833 5829 5826 5820 5815 5809 5803 5797 5789 5780 5772 5762 5752 5741 5730 5717 5704 5691 5677 5661 5647 5632 5618 5603 5588 5573 5557 5541 5525 5509 5494 5480 5466 5452 5438 5424 5409 5394 5380
5835 5833 5833 5833 5829 5825 5822 5820 5814 5809 5804 5798 5791 5784 5776 5767 5757 5747 5737 5725 5713 5700 5687 5673 5658 5643 5629 5615 5600 5586 5571 5555 5540 5524 5509 5495 5481 5467 5453 5439 5425 5411 5397 5383
5826 5824 5825 5827 5822 5816 5815 5812 5808 5802 5797 5791 5783 5777 5770 5760 5751 5742 5731 5721 5709 5697 5684 5670 5655 5641 5626 5612 5598 5584 5569 5554 5539 5524 5510 5495 5482 5468 5453 5439 5426 5412 5399 5386
5817 5815 5816 5817 5812 5808 5806 5804 5799 5793 5788 5783 5776 5769 5762 5753 5745 5736 5726 5715 5704 5692 5680 5667 5653 5638 5624 5610 5596 5583 5568 5554 5539 5525 5510 5496 5482 5469 5455 5441 5427 5413 5401 5389
5808 5807 5810 5806 5803 5799 5796 5793 5789 5784 5780 5775 5769 5762 5755 5747 5738 5730 5720 5710 5700 5688 5676 5663 5650 5636 5621 5608 5594 5581 5568 5554 5540 5525 5511 5497 5483 5470 5456 5443 5430 5417 5406 5394
5799 5802 5800 5797 5793 5788 5785 5783 5780 5775 5772 5767 5761 5754 5747 5740 5732 5724 5715 5705 5695 5684 5673 5660 5647 5633 5619 5605 5592 5579 5566 5553 5540 5526 5512 5498 5485 5472 5459 5446 5433 5422 5410 5398
5788 5792 5790 5786 5782 5778 5775 5772 5769 5766 5762 5757 5752 5746 5740 5732 5725 5717 5709 5700 5690 5680 5669 5657 5644 5631 5617 5603 5590 5577 5565 5552 5539 5525 5512 5498 5486 5473 5461 5449 5437 5425 5413 5402
5777 5781 5778 5776 5772 5768 5764 5761 5758 5755 5751 5747 5742 5737 5731 5724 5717 5710 5702 5694 5685 5675 5664 5653 5641 5628 5614 5601 5588 5576 5563 5551 5538 5525 5511 5498 5486 5474 5462 5450 5438 5427 5416 5405
5766 5768 5764 5764 5762 5757 5753 5750 5747 5744 5740 5736 5732 5728 5722 5716 5709 5702 5695 5687 5679 5669 5659 5649 5637 5625 5612 5599 5586 5574 5562 5550 5537 5524 5511 5497 5484 5472 5461 5451 5439 5427 5417 5406
5754 5753 5749 5750 5748 5744 5741 5739 5737 5732 5729 5726 5722 5718 5713 5706 5700 5694 5687 5680 5672 5663 5654 5644 5633 5621 5609 5596 5584 5572 5561 5549 5537 5524 5511 5498 5485 5473 5461 5450 5440 5429 5419 5409
5739 5736 5732 5734 5732 5731 5729 5727 5724 5721 5718 5715 5711 5707 5702 5696 5691 5685 5679 5672 5665 5657 5648 5639 5628 5617 5606 5594 5582 5570 5559 5547 5536 5524 5512 5500 5487 5476 5464 5453 5442 5432 5422 5412
5722 5717 5713 5714 5717 5717 5716 5713 5710 5709 5707 5704 5700 5696 5691 5686 5681 5675 5670 5664 5657 5650 5642 5633 5623 5613 5602 5590 5579 5568 5557 5546 5535 5524 5512 5500 5488 5477 5466 5455 5444 5434 5424 5414
5700 5696 5695 5696 5699 5701 5701 5700 5698 5696 5695 5692 5689 5685 5679 5675 5671 5665 5660 5655 5649 5642 5635 5627 5618 5608 5598 5587 5576 5565 5555 5544 5534 5524 5512 5501 5489 5477 5466 5456 5446 5436 5427 5417
5674 5674 5675 5675 5679 5682 5684 5684 5684 5682 5680 5678 5675 5671 5667 5663 5659 5654 5649 5645 5640 5634 5627 5620 5612 5602 5593 5583 5572 5562 5552 5542 5532 5522 5512 5501 5489 5478 5467 5456 5447 5438 5429 5420
5651 5653 5654 5655 5657 5661 5664 5666 5666 5665 5664 5662 5659 5656 5653 5650 5647 5643 5638 5635 5630 5625 5619 5612 5605 5596 5587 5578 5568 5558 5549 5539 5530 5520 5510 5500 5489 5478 5467 5457 5447 5438 5429 5421
5631 5631 5632 5633 5635 5637 5640 5643 5644 5644 5644 5643 5642 5641 5639 5636 5634 5630 5626 5623 5619 5614 5610 5604 5597 5589 5581 5572 5563 5554 5545 5536 5527 5518 5509 5499 5488 5477 5467 5457 5447 5438 5430 5422
5613 5613 5613 5613 5614 5615 5617 5620 5621 5622 5623 5623 5624 5623 5623 5621 5619 5616 5613 5611 5608 5604 5601 5595 5588 5582 5574 5566 5558 5549 5540 5532 5524 5515 5506 5497 5487 5477 5466 5456 5447 5438 5430 5422
5594 5593 5591 5591 5593 5594 5596 5598 5599 5601 5602 5603 5605 5605 5605 5604 5603 5601 5600 5599 5596 5593 5590 5585 5580 5574 5567 5559 5551 5543 5535 5528 5520 5512 5503 5495 5485 5475 5465 5455 5446 5438 5430 5422
5575 5573 5572 5571 5571 5572 5573 5575 5577 5580 5582 5584 5585 5587 5587 5587 5587 5586 5586 5585 5582 5581 5579 5575 5570 5565 5559 5552 5545 5537 5530 5523 5516 5508 5500 5492 5483 5474 5464 5454 5445 5437 5429 5422
5556 5554 5553 5551 5551 5551 5552 5552 5555 5558 5561 5563 5566 5567 5569 5570 5570 5570 5571 5570 5569 5569 5567 5564 5560 5556 5550 5544 5538 5531 5524 5518 5511 5504 5497 5489 5481 5472 5463 5453 5444 5436 5428 5421
5537 5535 5533 5531 5530 5530 5530 5531 5533 5536 5539 5542 5546 5548 5550 5552 5554 5555 5555 5555 5556 5556 5555 5552 5549 5546 5541 5536 5530 5524 5518 5512 5506 5499 5492 5485 5478 5469 5461 5452 5443 5435 5427 5420
5516 5514 5512 5511 5509 5509 5510 5511 5513 5515 5519 5522 5525 5528 5531 5534 5537 5539 5540 5541 5542 5543 5542 5540 5538 5535 5531 5527 5522 5517 5511 5506 5500 5494 5488 5481 5474 5467 5458 5450 5442 5434 5426 5419
5494 5492 5490 5489 5489 5489 5489 5491 5493 5496 5499 5503 5506 5509 5512 5516 5519 5522 5525 5527 5529 5530 5529 5528 5527 5524 5522 5518 5514 5509 5504 5499 5494 5489 5483 5477 5471 5464 5456 5448 5440 5432 5425 5418
5469 5467 5466 5466 5467 5467 5469 5471 5474 5477 5480 5484 5488 5492 5495 5499 5503 5506 5510 5512 5515 5516 5517 5516 5516 5514 5512 5509 5505 5501 5497 5493 5488 5483 5478 5472 5466 5460 5453 5445 5438 5430 5423 5417